******************************************************************************* JPL/HORIZONS Leonard (C/2023 V5) 2025-Dec-12 21:11:33 Rec #:90004823 (+COV) Soln.date: 2024-Apr-13_16:42:53 # obs: 148 (9 days) IAU76/J2000 helio. ecliptic osc. elements (au, days, deg., period=Julian yrs): EPOCH= 2460255.5 ! 2023-Nov-07.0000000 (TDB) RMSW= n.a. EC= 1.008138653823129 QR= .8460190365798722 TP= 2460292.3928015921 OM= 31.52409285094654 W= 56.98754911099194 IN= 73.5575945831937 A= -103.9507337411994 MA= -.03430870861026334 ADIST= 9.999999E99 PER= 9.999999E99 N= .000929957 ANGMOM= .022421691 DAN= 1.09661 DDN= 3.76915 L= 55.0646161 B= 53.5387909 MOID= .0885228 TP= 2023-Dec-13.8928015921 Comet physical (GM= km^3/s^2; RAD= km): GM= n.a. RAD= n.a. M1= 21.4 M2= n.a. k1= 10. k2= n.a. PHCOF= n.a. COMET comments 1: soln ref.= JPL#4, data arc: 2023-11-05 to 2023-11-14 2: k1=10.; ******************************************************************************* ******************************************************************************* Ephemeris / WWW_USER Fri Dec 12 21:11:33 2025 Pasadena, USA / Horizons ******************************************************************************* Target body name: Leonard (C/2023 V5) {source: JPL#4} Center body name: Solar System Barycenter (0) {source: DE441} Center-site name: BODY CENTER ******************************************************************************* Start time : A.D. 1950-Jan-01 00:00:00.0000 TDB Stop time : A.D. 2100-Jan-01 00:00:00.0000 TDB Step-size : 150 calendar years ******************************************************************************* Center geodetic : 0.0, 0.0, 0.0 {E-lon(deg),Lat(deg),Alt(km)} Center cylindric: 0.0, 0.0, 0.0 {E-lon(deg),Dxy(km),Dz(km)} Center radii : (undefined) Keplerian GM : 2.9630927493968080E-04 au^3/d^2 Small perturbers: Yes {source: SB441-N16} Output units : AU-D, deg, Julian Day Number (Tp) Calendar mode : Mixed Julian/Gregorian Output type : GEOMETRIC osculating elements Output format : 10 Reference frame : Ecliptic of J2000.0 ******************************************************************************* Initial IAU76/J2000 heliocentric ecliptic osculating elements (au, days, deg.): EPOCH= 2460255.5 ! 2023-Nov-07.0000000 (TDB) RMSW= n.a. EC= 1.008138653823129 QR= .8460190365798722 TP= 2460292.3928015921 OM= 31.52409285094654 W= 56.98754911099194 IN= 73.5575945831937 Equivalent ICRF heliocentric cartesian coordinates (au, au/d): X= 9.195859466511334E-01 Y= 5.156262568028320E-01 Z= 2.491788248644158E-01 VX=-1.279045751363589E-02 VY=-8.769155560987178E-03 VZ= 1.756858229279640E-02 Comet physical (GM= km^3/s^2; RAD= km): GM= n.a. RAD= n.a. M1= 21.4 M2= n.a. k1= 10. k2= n.a. PHCOF= n.a. ******************************************************************************* JDTDB EC QR IN OM W Tp N MA TA A AD PR ******************************************************************************* $$SOE 2433282.500000000 = A.D. 1950-Jan-01 00:00:00.0000 TDB EC= 1.007301355005588E+00 QR= 8.379786132449620E-01 IN= 7.360734518795606E+01 OM= 3.153489016553049E+01 W = 5.718676735615395E+01 Tp= 2460291.068827324547 N = 8.021416202091425E-04 MA=-2.166469715868038E+01 TA= 1.922925089669502E+02 A =-1.147702875156300E+02 AD= 9.999999999999998E+99 PR= 9.999999999999998E+99 2488069.500000000 = A.D. 2100-Jan-01 00:00:00.0000 TDB EC= 1.007926696025150E+00 QR= 8.480613275908883E-01 IN= 7.347819158475264E+01 OM= 3.152372761880261E+01 W = 5.700158871105727E+01 Tp= 2460291.574569191318 N = 8.912359004957929E-04 MA= 2.475668438523187E+01 TA= 1.676010707687958E+02 A =-1.069879966256035E+02 AD= 9.999999999999998E+99 PR= 9.999999999999998E+99 $$EOE ******************************************************************************* TIME Barycentric Dynamical Time ("TDB" or T_eph) output was requested. This continuous coordinate time is equivalent to the relativistic proper time of a clock at rest in a reference frame co-moving with the solar system barycenter but outside the system's gravity well. It is the independent variable in the solar system relativistic equations of motion. TDB runs at a uniform rate of one SI second per second and is independent of irregularities in Earth's rotation. CALENDAR SYSTEM Mixed calendar mode was active such that calendar dates after AD 1582-Oct-15 (if any) are in the modern Gregorian system. Dates prior to 1582-Oct-5 (if any) are in the Julian calendar system, which is automatically extended for dates prior to its adoption on 45-Jan-1 BC. The Julian calendar is useful for matching historical dates. The Gregorian calendar more accurately corresponds to the Earth's orbital motion and seasons. A "Gregorian-only" calendar mode is available if such physical events are the primary interest. REFERENCE FRAME AND COORDINATES Ecliptic at the standard reference epoch Reference epoch: J2000.0 X-Y plane: adopted Earth orbital plane at the reference epoch Note: IAU76 obliquity of 84381.448 arcseconds wrt ICRF X-Y plane X-axis : ICRF Z-axis : perpendicular to the X-Y plane in the directional (+ or -) sense of Earth's north pole at the reference epoch. Symbol meaning [1 au= 149597870.700 km, 1 day= 86400.0 s]: JDTDB Julian Day Number, Barycentric Dynamical Time EC Eccentricity, e QR Periapsis distance, q (au) IN Inclination w.r.t X-Y plane, i (degrees) OM Longitude of Ascending Node, OMEGA, (degrees) W Argument of Perifocus, w (degrees) Tp Time of periapsis (Julian Day Number) N Mean motion, n (degrees/day) MA Mean anomaly, M (degrees) TA True anomaly, nu (degrees) A Semi-major axis, a (au) AD Apoapsis distance (au) PR Sidereal orbit period (day) ABERRATIONS AND CORRECTIONS Geometric osculating elements have NO corrections or aberrations applied. Computations by ... Solar System Dynamics Group, Horizons On-Line Ephemeris System 4800 Oak Grove Drive, Jet Propulsion Laboratory Pasadena, CA 91109 USA General site: https://ssd.jpl.nasa.gov/ Mailing list: https://ssd.jpl.nasa.gov/email_list.html System news : https://ssd.jpl.nasa.gov/horizons/news.html User Guide : https://ssd.jpl.nasa.gov/horizons/manual.html Connect : browser https://ssd.jpl.nasa.gov/horizons/app.html#/x API https://ssd-api.jpl.nasa.gov/doc/horizons.html command-line telnet ssd.jpl.nasa.gov 6775 e-mail/batch https://ssd.jpl.nasa.gov/ftp/ssd/horizons_batch.txt scripts https://ssd.jpl.nasa.gov/ftp/ssd/SCRIPTS Author : Jon.D.Giorgini@jpl.nasa.gov ******************************************************************************* !$$SOF CENTER = '@0' COMMAND = '2023 V5' OUT_UNITS = 'AU-D' START_TIME = '1950-01-01' STEP_SIZE = '150 years' STOP_TIME = '2100-01-01' TABLE_TYPE = 'ELEMENTS'